TimeAKST,TemperatureF,Dew PointF,Humidity,Sea Level PressureIn,VisibilityMPH,Wind Direction,Wind SpeedMPH,Gust SpeedMPH,PrecipitationIn,Events,Conditions,WindDirDegrees,DateUTC
12:43 AM,39.2,35.6,87,29.42,8.0,Variable,4.6,-,N/A,,Overcast,0,2013-01-07 09:43:00
12:53 AM,39.0,36.0,89,29.42,10.0,Calm,Calm,-,N/A,,Overcast,0,2013-01-07 09:53:00
1:00 AM,37.4,35.6,93,29.41,9.0,Calm,Calm,-,N/A,,Overcast,0,2013-01-07 10:00:00
1:53 AM,39.0,36.0,89,29.42,10.0,ENE,4.6,-,N/A,,Overcast,60,2013-01-07 10:53:00
2:40 AM,39.2,37.4,93,29.40,2.5,Variable,3.5,-,0.00,Rain,Light Rain,0,2013-01-07 11:40:00
3:13 AM,39.2,37.4,93,29.40,1.8,Calm,Calm,-,0.01,Rain,Light Rain,0,2013-01-07 12:13:00
3:21 AM,39.2,37.4,93,29.41,1.5,West,3.5,-,0.02,Rain,Light Rain,260,2013-01-07 12:21:00
3:35 AM,39.2,37.4,93,29.41,2.0,Calm,Calm,-,0.03,Rain,Light Rain,0,2013-01-07 12:35:00
3:43 AM,39.2,39.2,100,29.41,1.5,Calm,Calm,-,0.04,Rain,Light Rain,0,2013-01-07 12:43:00
3:53 AM,39.9,39.0,97,29.41,1.8,Variable,3.5,-,0.05,Rain,Light Rain,0,2013-01-07 12:53:00
4:04 AM,39.2,39.2,100,29.41,3.0,SSW,4.6,-,0.01,Rain,Light Rain,200,2013-01-07 13:04:00
4:53 AM,39.9,39.0,97,29.42,3.0,West,6.9,-,0.01,,Overcast,260,2013-01-07 13:53:00
5:33 AM,39.2,39.2,100,29.42,3.0,SW,4.6,-,0.01,,Overcast,230,2013-01-07 14:33:00
5:42 AM,39.2,39.2,100,29.43,5.0,WSW,6.9,-,0.01,,Overcast,250,2013-01-07 14:42:00
5:53 AM,39.9,39.0,97,29.43,5.0,SW,4.6,-,0.01,,Overcast,230,2013-01-07 14:53:00
6:53 AM,39.0,37.9,96,29.44,10.0,South,3.5,-,N/A,,Mostly Cloudy,180,2013-01-07 15:53:00
7:53 AM,39.0,37.0,93,29.48,10.0,South,4.6,-,N/A,,Mostly Cloudy,180,2013-01-07 16:53:00
8:11 AM,39.2,37.4,93,29.48,10.0,South,3.5,-,N/A,,Mostly Cloudy,190,2013-01-07 17:11:00
8:53 AM,39.0,36.0,89,29.51,10.0,South,5.8,-,N/A,,Overcast,170,2013-01-07 17:53:00
9:53 AM,39.9,37.0,89,29.53,10.0,South,3.5,-,N/A,,Overcast,190,2013-01-07 18:53:00
10:43 AM,39.2,37.4,93,29.54,10.0,Calm,Calm,-,N/A,,Overcast,0,2013-01-07 19:43:00
10:53 AM,39.0,37.0,93,29.55,8.0,SSW,3.5,-,N/A,,Overcast,200,2013-01-07 19:53:00
11:21 AM,39.2,37.4,93,29.57,8.0,WSW,3.5,-,0.01,Rain,Light Rain,240,2013-01-07 20:21:00
11:29 AM,39.2,37.4,93,29.57,10.0,Calm,Calm,-,0.01,Rain,Light Rain,0,2013-01-07 20:29:00
11:53 AM,39.0,37.0,93,29.58,10.0,Calm,Calm,-,0.01,Rain,Light Rain,0,2013-01-07 20:53:00
12:00 PM,39.2,37.4,93,29.58,10.0,Calm,Calm,-,N/A,,Overcast,0,2013-01-07 21:00:00
12:36 PM,39.2,37.4,93,29.58,10.0,Variable,5.8,-,0.00,,Overcast,0,2013-01-07 21:36:00
12:53 PM,39.9,37.0,89,29.59,10.0,Variable,3.5,-,0.00,,Overcast,0,2013-01-07 21:53:00
1:42 PM,37.4,35.6,93,29.64,2.0,Variable,6.9,21.9,0.04,Rain,Heavy Rain,0,2013-01-07 22:42:00
1:50 PM,37.4,35.6,93,29.64,4.0,Variable,3.5,-,0.05,Rain,Light Rain,0,2013-01-07 22:50:00
1:53 PM,37.0,35.1,93,29.65,5.0,Variable,3.5,-,0.05,Rain,Light Rain,0,2013-01-07 22:53:00
2:53 PM,37.9,35.1,89,29.67,10.0,Variable,4.6,-,0.04,Rain,Light Rain,0,2013-01-07 23:53:00
3:19 PM,37.4,33.8,87,29.68,10.0,South,5.8,-,0.00,,Mostly Cloudy,170,2013-01-08 00:19:00
3:53 PM,37.0,35.1,93,29.70,9.0,South,3.5,-,0.01,Rain,Light Rain,190,2013-01-08 00:53:00
4:01 PM,37.4,35.6,93,29.70,10.0,WSW,4.6,-,0.00,,Overcast,250,2013-01-08 01:01:00
4:17 PM,37.4,33.8,87,29.70,10.0,South,4.6,-,0.00,,Mostly Cloudy,180,2013-01-08 01:17:00
5:35 PM,35.6,33.8,93,29.70,4.0,SSW,3.5,-,0.01,Rain,Rain,200,2013-01-08 02:35:00
5:53 PM,36.0,33.1,89,29.70,10.0,SSE,4.6,-,0.01,,Scattered Clouds,150,2013-01-08 02:53:00
6:41 PM,37.4,33.8,87,29.72,10.0,Variable,4.6,-,0.01,Rain,Light Rain,0,2013-01-08 03:41:00
6:53 PM,37.0,34.0,89,29.73,8.0,Variable,3.5,-,0.02,Rain,Light Rain,0,2013-01-08 03:53:00
7:37 PM,35.6,33.8,93,29.75,2.5,SSW,10.4,21.9,0.07,Rain,Heavy Rain,210,2013-01-08 04:37:00
7:42 PM,33.8,33.8,100,29.75,2.0,SSW,5.8,21.9,0.07,Snow,Light Snow,200,2013-01-08 04:42:00
7:53 PM,33.1,32.0,96,29.76,2.0,South,4.6,-,0.08,Snow,Light Snow,170,2013-01-08 04:53:00
8:08 PM,33.8,32.0,93,29.75,7.0,Calm,Calm,-,0.01,Snow,Light Snow,0,2013-01-08 05:08:00
8:16 PM,33.8,32.0,93,29.75,9.0,SSE,3.5,-,0.02,,Overcast,160,2013-01-08 05:16:00
8:53 PM,35.1,33.1,92,29.75,10.0,South,4.6,-,0.02,,Overcast,180,2013-01-08 05:53:00
9:07 PM,35.6,33.8,93,29.75,10.0,SSW,4.6,-,0.01,,Mostly Cloudy,200,2013-01-08 06:07:00
9:22 PM,35.6,33.8,93,29.76,10.0,South,8.1,-,0.01,,Mostly Cloudy,180,2013-01-08 06:22:00
9:53 PM,36.0,33.1,89,29.77,10.0,South,8.1,-,0.04,,Overcast,170,2013-01-08 06:53:00
10:21 PM,35.6,33.8,93,29.77,10.0,Variable,3.5,-,0.01,Rain,Light Rain,0,2013-01-08 07:21:00
10:30 PM,35.6,33.8,93,29.77,10.0,Calm,Calm,-,0.01,,Overcast,0,2013-01-08 07:30:00
10:53 PM,36.0,33.1,89,29.78,10.0,Variable,4.6,-,0.02,,Overcast,0,2013-01-08 07:53:00
11:02 PM,35.6,33.8,93,29.78,9.0,Calm,Calm,-,0.00,Rain,Light Rain,0,2013-01-08 08:02:00
11:09 PM,35.6,33.8,93,29.78,9.0,SSW,4.6,-,0.00,Rain,Light Rain,210,2013-01-08 08:09:00
11:34 PM,33.8,33.8,100,29.77,10.0,Calm,Calm,-,0.00,,Scattered Clouds,0,2013-01-08 08:34:00
11:53 PM,34.0,32.0,92,29.78,10.0,Variable,4.6,-,0.00,,Clear,0,2013-01-08 08:53:00